Weather History for Winchester, VA

Change the Weather History Date:

Thursday, January 10, 2013

  Actual Average Record
Temperature  
Mean Temperature 43 °F -  
Max Temperature 51 °F 41 °F 64 °F (2002)
Min Temperature 35 °F 25 °F 8 °F (2004)
Degree Days  
Heating Degree Days 22    
Moisture  
Dew Point 31 °F    
Average Humidity 62    
Maximum Humidity 81    
Minimum Humidity 44    
Precipitation  
Precipitation 0.00 in - - ()
Sea Level Pressure  
Sea Level Pressure 30.49 in    
Wind  
Wind Speed 6 mph (NNW)    
Max Wind Speed 22 mph    
Max Gust Speed 30 mph    
Visibility 10 miles    
Events      
Averages and records for this station are not official NWS values.
T = Trace of Precipitation, MM = Missing Value Source: NWS Daily Summary

Daily Weather History Graph

Daily Weather History Graph

Search for Another Location

Airport:

Trip Planner

Search our weather history database for the weather conditions in past years. The results will help you decide how hot, cold, wet, or windy it might be!

Date:

Astronomy

Jan. 10, 2013 Rise Set
Actual Time 7:31 AM EST 5:09 PM EST
Civil Twilight 7:02 AM EST 5:38 PM EST
Nautical Twilight 6:28 AM EST 6:11 PM EST
Astronomical Twilight 5:56 AM EST 6:44 PM EST
Moon 6:09 AM EST (1/10) 4:14 PM EST (1/10)
Length of Visible Light 10h 36m
Length of Day
9h 37m
Waning Crescent, 2% of the Moon is Illuminated
Jan 10
Waning Crescent
Jan 11
New
Jan 18
First Quarter
Jan 26
Full
Feb 3
Last Quarter

Hourly Weather History & Observations

Time (EST) Temp. Windchill Dew Point Humidity Pressure Visibility Wind Dir Wind Speed Gust Speed Precip Events Conditions
12:15 AM 46.4 °F 43.5 °F 30.2 °F 53% 30.41 in 10.0 mi West 5.8 mph - N/A   Clear
12:35 AM 46.4 °F 41.9 °F 32.0 °F 57% 30.41 in 10.0 mi West 9.2 mph - N/A   Scattered Clouds
12:55 AM 44.6 °F 39.7 °F 32.0 °F 61% 30.41 in 10.0 mi West 9.2 mph - N/A   Scattered Clouds
1:15 AM 44.6 °F 39.7 °F 32.0 °F 61% 30.42 in 10.0 mi West 9.2 mph - N/A   Clear
1:35 AM 44.6 °F 40.2 °F 32.0 °F 61% 30.42 in 10.0 mi West 8.1 mph - N/A   Clear
1:55 AM 44.6 °F 39.2 °F 32.0 °F 61% 30.43 in 10.0 mi WNW 10.4 mph - N/A   Clear
3:15 AM 44.6 °F 36.9 °F 32.0 °F 61% 30.44 in 10.0 mi NW 18.4 mph - N/A   Clear
3:35 AM 42.8 °F 33.8 °F 32.0 °F 66% 30.43 in 10.0 mi WNW 21.9 mph 29.9 mph N/A   Scattered Clouds
3:55 AM 42.8 °F 36.6 °F 32.0 °F 66% 30.44 in 10.0 mi NW 11.5 mph 24.2 mph N/A   Scattered Clouds
4:15 AM 44.6 °F 42.2 °F 30.2 °F 57% 30.44 in 10.0 mi NNW 4.6 mph 16.1 mph N/A   Scattered Clouds
4:35 AM 42.8 °F - 30.2 °F 61% 30.44 in 10.0 mi Calm Calm - N/A   Scattered Clouds
4:55 AM 41.0 °F - 30.2 °F 65% 30.45 in 10.0 mi Calm Calm - N/A   Scattered Clouds
5:15 AM 42.8 °F 41.1 °F 30.2 °F 61% 30.46 in 10.0 mi North 3.5 mph - N/A   Mostly Cloudy
5:35 AM 41.0 °F 35.2 °F 30.2 °F 65% 30.46 in 10.0 mi NW 9.2 mph - N/A   Mostly Cloudy
5:55 AM 41.0 °F 34.7 °F 30.2 °F 65% 30.47 in 10.0 mi NW 10.4 mph - N/A   Scattered Clouds
6:15 AM 37.4 °F - 30.2 °F 75% 30.49 in 10.0 mi Calm Calm - N/A   Clear
6:35 AM 41.0 °F 37.1 °F 30.2 °F 65% 30.49 in 10.0 mi WNW 5.8 mph - N/A   Clear
6:55 AM 39.2 °F 32.5 °F 30.2 °F 70% 30.51 in 10.0 mi WNW 10.4 mph - N/A   Clear
7:15 AM 37.4 °F 32.1 °F 30.2 °F 75% 30.53 in 10.0 mi WNW 6.9 mph - N/A   Mostly Cloudy
7:35 AM 35.6 °F 29.9 °F 30.2 °F 81% 30.53 in 10.0 mi NW 6.9 mph - N/A   Scattered Clouds
7:55 AM 39.2 °F - 30.2 °F 70% 30.55 in 10.0 mi Calm Calm - N/A   Scattered Clouds
8:35 AM 39.2 °F 34.2 °F 30.2 °F 70% 30.56 in 10.0 mi NW 6.9 mph - N/A   Clear
9:15 AM 41.0 °F - 30.2 °F 65% 30.58 in 10.0 mi Calm Calm - N/A   Clear
9:35 AM 42.8 °F 39.3 °F 32.0 °F 66% 30.58 in 10.0 mi NW 5.8 mph - N/A   Clear
9:55 AM 42.8 °F 38.0 °F 32.0 °F 66% 30.59 in 10.0 mi WNW 8.1 mph - N/A   Clear
10:15 AM 44.6 °F 40.2 °F 30.2 °F 57% 30.59 in 10.0 mi NNW 8.1 mph - N/A   Clear
10:35 AM 44.6 °F 40.7 °F 32.0 °F 61% 30.59 in 10.0 mi NW 6.9 mph - N/A   Clear
10:55 AM 44.6 °F 42.2 °F 32.0 °F 61% 30.58 in 10.0 mi NE 4.6 mph - N/A   Clear
11:15 AM 46.4 °F 44.3 °F 32.0 °F 57% 30.57 in 10.0 mi NNW 4.6 mph - N/A   Clear
11:35 AM 46.4 °F 44.3 °F 32.0 °F 57% 30.55 in 10.0 mi WNW 4.6 mph - N/A   Clear
11:55 AM 50.0 °F - 32.0 °F 50% 30.55 in 10.0 mi Calm Calm - N/A   Clear
12:15 PM 48.2 °F - 32.0 °F 54% 30.53 in 10.0 mi NW 3.5 mph - N/A   Scattered Clouds
1:15 PM 51.8 °F - 32.0 °F 47% 30.51 in 10.0 mi NNW 4.6 mph - N/A   Clear
1:35 PM 51.8 °F - 32.0 °F 47% 30.50 in 10.0 mi NNE 4.6 mph - N/A   Clear
1:55 PM 51.8 °F - 32.0 °F 47% 30.50 in 10.0 mi North 5.8 mph - N/A   Clear
2:15 PM 51.8 °F - 32.0 °F 47% 30.50 in 10.0 mi Calm Calm - N/A   Scattered Clouds
2:35 PM 51.8 °F - 32.0 °F 47% 30.49 in 10.0 mi NW 3.5 mph - N/A   Scattered Clouds
3:15 PM 51.8 °F - 30.2 °F 44% 30.49 in 10.0 mi NNE 3.5 mph - N/A   Clear
3:35 PM 51.8 °F - 30.2 °F 44% 30.48 in 10.0 mi NNE 4.6 mph - N/A   Clear
3:55 PM 50.0 °F - 30.2 °F 47% 30.49 in 10.0 mi Calm Calm - N/A   Clear
4:15 PM 50.0 °F - 32.0 °F 50% 30.49 in 10.0 mi Calm Calm - N/A   Scattered Clouds
4:35 PM 48.2 °F - 32.0 °F 54% 30.49 in 10.0 mi Calm Calm - N/A   Scattered Clouds
4:55 PM 46.4 °F - 32.0 °F 57% 30.49 in 10.0 mi Calm Calm - N/A   Scattered Clouds
5:15 PM 46.4 °F 44.3 °F 32.0 °F 57% 30.48 in 10.0 mi East 4.6 mph - N/A   Clear
5:35 PM 44.6 °F 42.2 °F 32.0 °F 61% 30.49 in 10.0 mi East 4.6 mph - N/A   Scattered Clouds
5:55 PM 44.6 °F 43.1 °F 32.0 °F 61% 30.49 in 10.0 mi East 3.5 mph - N/A   Scattered Clouds
6:15 PM 44.6 °F - 32.0 °F 61% 30.49 in 10.0 mi Calm Calm - N/A   Clear
6:35 PM 44.6 °F - 32.0 °F 61% 30.50 in 10.0 mi Calm Calm - N/A   Clear
6:55 PM 44.6 °F - 32.0 °F 61% 30.50 in 10.0 mi Calm Calm - N/A   Clear
7:15 PM 44.6 °F - 32.0 °F 61% 30.50 in 10.0 mi Calm Calm - N/A   Clear
7:35 PM 42.8 °F 41.1 °F 32.0 °F 66% 30.49 in 10.0 mi NE 3.5 mph - N/A   Clear
7:55 PM 42.8 °F - 32.0 °F 66% 30.49 in 10.0 mi Calm Calm - N/A   Clear
8:15 PM 42.8 °F - 32.0 °F 66% 30.48 in 10.0 mi Calm Calm - N/A   Clear
8:35 PM 42.8 °F 41.1 °F 32.0 °F 66% 30.48 in 10.0 mi NNE 3.5 mph - N/A   Clear
8:55 PM 42.8 °F - 30.2 °F 61% 30.48 in 10.0 mi Calm Calm - N/A   Scattered Clouds
9:15 PM 41.0 °F 39.0 °F 32.0 °F 70% 30.48 in 10.0 mi NNE 3.5 mph - N/A   Scattered Clouds
9:35 PM 41.0 °F - 32.0 °F 70% 30.48 in 10.0 mi Calm Calm - N/A   Clear
9:55 PM 41.0 °F - 32.0 °F 70% 30.48 in 10.0 mi Calm Calm - N/A   Clear
10:15 PM 41.0 °F 39.0 °F 32.0 °F 70% 30.47 in 10.0 mi NE 3.5 mph - N/A   Clear
10:35 PM 41.0 °F 39.0 °F 32.0 °F 70% 30.47 in 10.0 mi NE 3.5 mph - N/A   Clear
10:55 PM 41.0 °F - 32.0 °F 70% 30.47 in 10.0 mi Calm Calm - N/A   Clear
11:15 PM 39.2 °F - 32.0 °F 75% 30.47 in 10.0 mi Calm Calm - N/A   Clear
11:35 PM 39.2 °F 37.0 °F 32.0 °F 75% 30.47 in 10.0 mi NE 3.5 mph - N/A   Clear
11:55 PM 39.2 °F - 32.0 °F 75% 30.46 in 10.0 mi Calm Calm - N/A   Clear